www.pogodaiklimat.ru

Погода и климат >> Архив погоды >> Эстония >> V?ru


ПОГОДА в V?ru

  • Прогноз погоды в V?ru
  • Монитор погоды в V?ru
  • Климат города

АРХИВ ПОГОДЫ в V?ru

Время (UTC), дата Ветер
(напр.,м/с)
 
Видим.   Явления Облачность Т
(С)
Тd
(С)
f
(%)
Тe
(С)
Тes
(С)
Комфортность P
(гПа)
Po
(гПа)
Тmin
(С)
Tmax
(С)
R
(мм)
R24
(мм)
S
(см)
22 11.12 С 2 5000 м н/о -0.4 -0.4 100 -4 -4 1018.6 1008.2
23 11.12 С 1 4100 м н/о -0.4 -0.5 99 -3 -3 1019.2 1008.7
00 12.12 С 1 4700 м н/о -0.4 -0.6 99 -3 -3 1019.7 1009.2
01 12.12 С 1 1800 м н/о -0.5 -0.7 99 -3 -3 1020.2 1009.8
02 12.12 3200 м н/о -0.4 -0.6 99 1020.7 1010.2
03 12.12 С 2 4900 м слаб. снег {ливн. осадки} 10/10 90 м
[]
-0.3 -0.6 98 -4 -4 1020.9 1010.5 -0.5 +0.1
04 12.12 1400 м н/о -0.4 -0.7 98 1021.6 1011.1
05 12.12 С 4 2700 м н/о -1.0 -1.2 99 -7 -7 1022.5 1012.1
06 12.12 С 4 7000 м н/о -1.0 -2.1 92 -7 -7 1023.1 1012.7 -1.0 -0.1
07 12.12 С 2 16 км н/о -1.0 -2.1 92 -5 -5 1023.8 1013.3
08 12.12 н/о
09 12.12 С 2 13 км 10/10 180 м
[]
-0.7 -1.5 94 -5 -5 1024.6 1014.1 -1.1 -0.3
10 12.12 С 2 14 км н/о -0.6 -1.6 93 -4 -4 1024.5 1014.0
11 12.12 С 3 12 км н/о -0.6 -1.4 94 -6 -6 1024.6 1014.1
12 12.12 С 4 11 км н/о -0.6 -1.6 93 -6 -6 1025.0 1014.5
13 12.12 С 4 18 км н/о -0.8 -2.4 89 -7 -7 1025.5 1015.0
14 12.12 С 3 17 км н/о -1.0 -2.7 88 -6 -6 1025.9 1015.3
15 12.12 С 3 20 км 10/10 630 м
[]
-1.1 -3.0 87 -6 -6 1026.2 1015.7 -1.2 -0.3
16 12.12 С 4 20 км н/о -1.5 -4.1 82 -7 -7 1026.4 1015.9
17 12.12 С 4 12 км н/о -1.8 -4.1 84 -8 -8 1026.6 1016.1
18 12.12 С 4 9000 м н/о -2.1 -4.4 84 -8 -8 1027.1 1016.5 -2.1 -0.5
19 12.12 С 2 19 км н/о -2.1 -4.6 83 -6 -6 1027.1 1016.6
20 12.12 С 3 18 км н/о -2.1 -3.8 88 -7 -7 1027.2 1016.6
21 12.12 С 3 20 км 10/10 270 м
[]
-2.0 -3.5 89 -7 -7 1027.2 1016.7 -2.2 -0.5
22 12.12 С 3 20 км н/о -2.0 -3.5 89 -7 -7 1027.2 1016.6
23 12.12 С 3 20 км н/о -1.9 -3.2 91 -7 -7 1027.5 1017.0
00 13.12 СВ 3 18 км н/о -1.8 -2.8 93 -7 -7 1027.4 1016.9
01 13.12 С 3 19 км н/о -1.7 -2.8 92 -7 -7 1027.4 1016.8
02 13.12 СВ 3 16 км н/о -1.6 -2.7 92 -7 -7 1027.4 1016.8
03 13.12 СВ 3 10 км слаб. снег 10/10 180 м
[]
-1.6 -2.6 93 -7 -7 1027.5 1017.0 -2.2 -1.0
04 13.12 СВ 3 2100 м н/о -1.6 -2.4 94 -7 -7 1027.8 1017.3
05 13.12 СВ 3 13 км в посл. час снег 10/10 150 м
[]
-1.5 -2.3 94 -7 -7 1027.8 1017.2 -2.2 -1.5
06 13.12 СВ 4 12 км н/о -1.5 -2.3 94 -7 -7 1028.1 1017.5 -2.2 -1.5
07 13.12 СВ 4 16 км 10/10 180 м
[]
-1.3 -2.3 93 -7 -7 1028.3 1017.8 -2.2 -1.3 0.2
08 13.12 н/о
09 13.12 С 3 20 км слаб. ливневой снег 10/10 270 м
[]
-1.1 -2.3 92 -6 -6 1028.9 1018.4 -2.0 -1.1 0.2
10 13.12 СВ 3 20 км н/о -0.8 -2.4 89 -6 -6 1028.7 1018.1
11 13.12 СВ 3 20 км н/о -0.6 -2.7 86 -5 -5 1028.6 1018.1
12 13.12 СВ 3 20 км н/о -0.6 -2.6 86 -5 -5 1028.9 1018.4
13 13.12 СВ 4 20 км н/о -0.7 -2.3 89 -6 -6 1028.9 1018.4
14 13.12 СВ 4 20 км н/о -0.6 -2.0 90 -6 -6 1029.0 1018.4
15 13.12 СВ 3 20 км слаб. ливневой снег 10/10 300 м
[]
-0.6 -2.1 90 -5 -5 1029.1 1018.6 -1.6 -0.6
16 13.12 СВ 3 20 км н/о -0.7 -2.4 88 -6 -6 1029.2 1018.7
17 13.12 СВ 3 20 км н/о -0.7 -2.7 86 -6 -6 1029.4 1018.9
18 13.12 СВ 4 20 км н/о -0.9 -3.7 81 -6 -6 1029.7 1019.1 -1.5 -0.5
19 13.12 СВ 4 20 км н/о -1.2 -4.1 81 -7 -7 1029.7 1019.1
20 13.12 СВ 3 20 км н/о -1.4 -4.2 81 -6 -6 1030.2 1019.6
21 13.12 СВ 3 20 км {ливн. осадки} 10/10 500 м
[]
-1.6 -4.6 80 -6 -6 1030.6 1020.0 -1.6 -0.5
22 13.12 СВ 3 20 км н/о -2.0 -4.1 86 -7 -7 1030.7 1020.1
23 13.12 СВ 3 20 км н/о -2.2 -4.2 86 -7 -7 1030.8 1020.2
00 14.12 СВ 3 20 км н/о -2.4 -4.4 86 -8 -8 1031.1 1020.5
01 14.12 СВ 3 20 км н/о -2.5 -4.4 87 -8 -8 1031.2 1020.5
02 14.12 СВ 3 20 км н/о -2.6 -4.4 87 -8 -8 1031.1 1020.5
03 14.12 СВ 3 20 км 10/10 270 м
[]
-2.7 -4.3 89 -8 -8 1031.0 1020.4 -2.7 -0.5
04 14.12 СВ 3 20 км н/о -2.8 -4.3 89 -8 -8 1031.3 1020.6
05 14.12 СВ 3 20 км н/о -2.8 -4.3 89 -8 -8 1031.5 1020.9
06 14.12 СВ 3 20 км н/о -2.7 -4.6 87 -8 -8 1031.9 1021.2 -2.8 -0.9
07 14.12 СВ 2 20 км н/о -2.7 -4.6 87 -7 -7 1032.3 1021.6
08 14.12 н/о
09 14.12 СВ 2 20 км 10/10 270 м
[]
-2.5 -4.3 87 -7 -7 1032.9 1022.3 -2.8 -1.6
10 14.12 СВ 2 20 км н/о -2.4 -4.3 87 -6 -6 1033.2 1022.5
11 14.12 СВ 3 20 км н/о -2.4 -4.2 87 -8 -8 1033.1 1022.4
12 14.12 СВ 2 20 км н/о -2.4 -4.2 87 -6 -6 1033.0 1022.3
13 14.12 СВ 2 20 км н/о -2.5 -4.2 88 -7 -7 1033.2 1022.6
14 14.12 СВ 2 20 км н/о -2.6 -4.2 89 -7 -7 1033.4 1022.8
15 14.12 С 2 20 км 10/10 270 м
[]
-2.6 -4.2 89 -7 -7 1033.7 1023.1 -2.8 -2.3
16 14.12 СВ 2 20 км н/о -2.7 -4.3 89 -7 -7 1033.9 1023.2
17 14.12 СВ 2 20 км н/о -2.8 -4.3 89 -7 -7 1034.1 1023.5
18 14.12 СВ 2 20 км н/о -2.9 -4.4 89 -7 -7 1034.2 1023.5 -2.9 -2.3
19 14.12 СВ 2 20 км н/о -2.9 -4.4 89 -7 -7 1034.3 1023.6
20 14.12 В 3 20 км н/о -3.2 -4.9 88 -8 -8 1034.6 1023.9
21 14.12 В 2 20 км 10/10 270 м
[]
-2.9 -4.5 89 -7 -7 1034.8 1024.2 -3.2 -2.3
22 14.12 В 2 20 км н/о -3.2 -4.9 88 -7 -7 1034.9 1024.2
23 14.12 В 2 20 км н/о -3.3 -5.0 88 -7 -7 1034.8 1024.1
00 15.12 н/о 1035.1 1024.4
01 15.12 СВ 2 20 км н/о -3.8 -5.7 87 -8 -8 1035.3 1024.6
02 15.12 СВ 1 20 км н/о -3.8 -5.4 89 -6 -6 1035.2 1024.5
03 15.12 СВ 1 20 км 10/10 240 м
[]
-3.7 -5.0 91 -6 -6 1035.3 1024.6 -3.9 -2.6
04 15.12 СВ 2 20 км н/о -3.6 -5.0 90 -8 -8 1035.4 1024.7
05 15.12 СВ 2 20 км н/о -3.6 -4.9 91 -8 -8 1035.6 1024.9
06 15.12 СВ 2 20 км н/о -3.7 -4.9 91 -8 -8 1035.9 1025.2 -3.9 -2.9
07 15.12 СВ 3 16 км н/о -3.9 -5.1 91 -9 -9 1036.3 1025.5
08 15.12 н/о
09 15.12 СВ 2 16 км 10/10 210 м
[]
-3.9 -5.1 91 -8 -8 1036.8 1026.0 -4.0 -2.9
10 15.12 СВ 2 18 км н/о -3.8 -5.0 91 -8 -8 1036.8 1026.1
11 15.12 СВ 2 20 км н/о -3.7 -5.1 90 -8 -8 1036.7 1026.0
12 15.12 СВ 2 19 км н/о -3.7 -5.3 89 -8 -8 1036.9 1026.1
13 15.12 СВ 2 13 км н/о -3.9 -5.2 91 -8 -8 1037.0 1026.2
14 15.12 СВ 2 14 км н/о -4.1 -5.4 91 -8 -8 1037.0 1026.2
15 15.12 СВ 2 10 км 10/10 210 м
[]
-4.4 -5.5 92 -9 -9 1037.1 1026.3 -4.4 -3.6
16 15.12 СВ 3 5000 м н/о -5.1 -5.7 96 -11 -11 1037.1 1026.3
17 15.12 СВ 2 6000 м н/о -5.4 -6.1 95 -10 -10 1037.0 1026.2
18 15.12 СВ 2 8000 м н/о -5.6 -6.3 95 -10 -10 1037.0 1026.2 -5.6 -3.6
19 15.12 СВ 3 10 км н/о -6.0 -6.7 95 -12 -12 1036.8 1026.0
20 15.12 СВ 2 11 км н/о -6.1 -6.8 95 -11 -11 1036.9 1026.1
21 15.12 СВ 2 10 км 10/10 120 м
[]
-6.2 -6.9 95 -11 -11 1036.8 1026.0 -6.3 -3.6
22 15.12 СВ 2 10 км н/о -6.1 -6.8 95 -11 -11 1036.5 1025.6
23 15.12 В 2 9000 м н/о -5.7 -6.5 94 -10 -10 1036.6 1025.7
00 16.12 В 2 9000 м н/о -5.8 -6.6 94 -10 -10 1036.5 1025.7
01 16.12 В 3 14 км н/о -6.0 -6.9 93 -12 -12 1036.4 1025.6
02 16.12 В 3 14 км н/о -6.1 -6.9 94 -12 -12 1036.0 1025.2
03 16.12 В 3 20 км 10/10 240 м
[]
-6.0 -7.0 93 -12 -12 1035.5 1024.6 -6.3 -4.4
04 16.12 ЮВ 2 20 км н/о -5.8 -7.0 91 -10 -10 1035.3 1024.5
05 16.12 В 2 20 км н/о -6.1 -7.7 88 -10 -10 1035.0 1024.2
06 16.12 ЮВ 2 20 км н/о -6.5 -7.8 90 -11 -11 1034.9 1024.1 -6.5 -5.6
07 16.12 В 2 20 км н/о -6.4 -7.7 90 -11 -11 1034.5 1023.7
08 16.12 н/о
09 16.12 ЮВ 3 20 км 10/10 180 м
[]
-5.3 -6.3 93 -11 -11 1034.0 1023.2 -6.6 -5.3
10 16.12 В 3 20 км н/о -5.0 -6.1 92 -11 -11 1033.6 1022.8
11 16.12 В 3 20 км н/о -4.7 -5.7 93 -10 -10 1032.9 1022.2
12 16.12 В 3 20 км н/о -4.4 -5.3 93 -10 -10 1032.3 1021.6
13 16.12 В 3 17 км н/о -4.1 -5.0 93 -10 -10 1031.7 1021.0
14 16.12 В 3 15 км н/о -3.8 -4.7 93 -9 -9 1031.6 1020.9
15 16.12 В 3 16 км 10/10 180 м
[]
-3.6 -4.6 93 -9 -9 1031.1 1020.4 -6.6 -3.6
16 16.12 В 3 18 км н/о -3.5 -4.4 93 -9 -9 1030.5 1019.8
17 16.12 В 5 20 км н/о -3.3 -4.4 92 -10 -10 1029.9 1019.2
18 16.12 В 5 20 км н/о -3.3 -4.6 91 -10 -10 1029.2 1018.5 -6.6 -3.2
19 16.12 В 4 20 км н/о -3.3 -4.6 91 -10 -10 1028.6 1018.0
20 16.12 В 3 20 км н/о -3.4 -4.7 91 -9 -9 1028.2 1017.6
21 16.12 В 3 20 км 9/5 270 м
[]
-3.6 -5.1 89 -9 -9 1028.0 1017.3 -5.3 -3.2
22 16.12 ЮВ 2 20 км н/о -3.6 -5.3 88 -8 -8 1027.9 1017.2
23 16.12 ЮВ 2 20 км н/о -3.5 -5.3 87 -8 -8 1027.8 1017.2
00 17.12 ЮВ 3 20 км н/о -3.2 -5.1 87 -8 -8 1027.3 1016.7
01 17.12 ЮВ 3 20 км н/о -3.0 -5.1 85 -8 -8 1027.3 1016.7
02 17.12 ЮВ 3 20 км н/о -2.9 -5.0 85 -8 -8 1026.9 1016.3
03 17.12 Ю 3 20 км 9/5 360 м
[]
-2.8 -5.0 85 -8 -8 1026.7 1016.1 -3.8 -2.8
04 17.12 Ю 2 20 км н/о -2.8 -4.9 85 -7 -7 1026.6 1016.0
05 17.12 Ю 3 20 км н/о -2.8 -4.9 85 -8 -8 1026.7 1016.1
06 17.12 ЮВ 2 15 км н/о -2.8 -4.9 85 -7 -7 1026.8 1016.2 -3.8 -2.7
07 17.12 ЮВ 2 4700 м н/о -3.1 -4.5 90 -7 -7 1027.0 1016.4 0.2
08 17.12 н/о
09 17.12 ЮВ 3 14 км слаб. снег 10/10 1500 м
[]
-2.8 -5.1 84 -8 -8 1027.4 1016.8 -3.8 -2.7 0.5
10 17.12 ЮВ 2 8000 м н/о -2.8 -4.8 86 -7 -7 1027.4 1016.8
11 17.12 ЮВ 2 3400 м н/о -2.9 -4.8 87 -7 -7 1027.3 1016.7
12 17.12 ЮВ 2 2300 м н/о -2.9 -4.8 87 -7 -7 1027.3 1016.7 0.2
13 17.12 ЮВ 1 6000 м н/о -3.0 -4.8 87 -5 -5 1027.2 1016.6 0.4
14 17.12 ЮВ 2 3500 м н/о -3.3 -4.8 89 -7 -7 1027.5 1016.9 0.2
15 17.12 ЮВ 2 15 км слаб. снег 9/9 400 м
[]
-3.1 -5.1 86 -7 -7 1027.7 1017.1 -3.3 -2.7 0.7
16 17.12 ЮВ 2 12 км н/о -3.2 -5.4 85 -7 -7 1027.7 1017.1
17 17.12 ЮВ 2 2600 м н/о -3.6 -5.1 89 -8 -8 1028.0 1017.4 0.3
18 17.12 ЮВ 1 2200 м н/о -3.9 -5.2 91 -6 -6 1028.2 1017.6 -3.9 -2.7 0.5
19 17.12 ЮВ 2 2200 м н/о -4.0 -5.3 91 -8 -8 1028.4 1017.7 0.3
20 17.12 Ю 2 5000 м н/о -4.0 -5.8 87 -8 -8 1028.7 1018.0 0.4
21 17.12 Ю 2 3900 м слаб. снег 10/10 1000 м
[]
-4.3 -5.9 89 -9 -9 1028.8 1018.1 -4.3 -2.7 0.9
22 17.12 Ю 1 2300 м н/о -4.4 -5.9 89 -7 -7 1029.0 1018.3 0.2
23 17.12 ЮВ 1 1700 м н/о -4.5 -5.6 92 -7 -7 1028.9 1018.2 0.5
00 18.12 н/о 1028.9 1018.2
01 18.12 ЮВ 1 2300 м н/о -4.5 -5.7 91 -7 -7 1028.7 1018.0 0.3
02 18.12 ЮВ 1 2100 м н/о -4.6 -5.9 91 -7 -7 1028.7 1018.0 0.5
03 18.12 Ю 1 2600 м слаб. снег 10/10 1110 м
[]
-4.6 -6.0 90 -7 -7 1028.8 1018.1 -4.6 -3.1 1
04 18.12 ЮВ 1 1400 м н/о -4.6 -5.7 92 -7 -7 1028.7 1018.0 0.6
05 18.12 ЮВ 1 1600 м н/о -4.7 -5.7 93 -7 -7 1028.7 1018.0 0.5
06 18.12 ЮВ 1 4800 м н/о -4.7 -6.0 91 -7 -7 1028.9 1018.2 -4.8 -3.8 0.1
07 18.12 Ю 1 6000 м н/о -4.5 -6.1 89 -7 -7 1029.1 1018.4 0.2
08 18.12 н/о
09 18.12 Ю 1 2200 м слаб. снег 10/10 750 м
[]
-4.1 -5.5 90 -6 -6 1029.8 1019.1 -4.8 -4.1 0.8
10 18.12 Ю 2 11 км н/о -3.8 -6.0 85 -8 -8 1029.7 1019.0 0.1
11 18.12 Ю 1 9000 м н/о -3.7 -5.8 85 -6 -6 1029.7 1019.0
12 18.12 Ю 1 7000 м н/о -3.5 -5.7 85 -6 -6 1029.8 1019.2
13 18.12 ЮЗ 2 10 км н/о -3.8 -5.9 85 -8 -8 1029.9 1019.2
14 18.12 Ю 2 13 км н/о -4.0 -5.9 87 -8 -8 1030.0 1019.4
15 18.12 Ю 2 15 км 10/10 270 м
[]
-4.2 -6.0 87 -8 -8 1030.3 1019.6 -4.8 -3.4
16 18.12 ЮЗ 2 11 км н/о -4.4 -6.0 89 -9 -9 1030.9 1020.2
17 18.12 ЮЗ 2 9000 м н/о -4.4 -5.8 90 -9 -9 1031.2 1020.5
18 18.12 ЮЗ 1 8000 м н/о -4.4 -5.8 90 -7 -7 1031.3 1020.6 -4.7 -3.4
19 18.12 Ю 1 8000 м н/о -4.3 -5.8 89 -7 -7 1031.5 1020.8
20 18.12 Ю 2 14 км н/о -4.3 -6.2 87 -9 -9 1031.8 1021.1

 

Местоположение метеостанции V?ru (Эстония): широта 57.85 долгота 27.02 высота над уровнем моря 83 м.

В архиве по умолчанию представлена погода в V?ru за последнюю неделю. Архивные данные за месяц целиком и за предыдущие месяцы, начиная с января 2011 года, Вы можете получить, выбрав интересующий диапазон дат из раскрывающегося списка и нажав кнопку "Ввод!".


*Определитесь, кто Вы:
робот инопланетянин человек

Внимание! Время в таблицах - всемирное. Для получения местного времени необходимо прибавить поправку, которая в V?ru равна 2 ч.

Смотрите также архив погоды в соседних городах и на ближайших метеорологических станциях:

Погода в Al?ksnes (Латвия) (47 км)
Погода в Tartu (Эстония) (53 км)
Погода в Valga (Эстония) (59 км)
Погода в Пскове (Псковская область, Россия) (78 км)
Погода в Gulbene (Латвия) (82 км)
Погода в R?jienas (Латвия) (97 км)
Погода в Viljandi (Эстония) (102 км)
Погода в Zoseni (Латвия) (104 км)
Погода в Jogeva (Эстония) (106 км)
Погода в Гдове (Псковская область, Россия) (109 км)

Пояснения к столбцам:

Ветер - указаны скорость ветра в м/с - средняя за 10 мин, порывы в срок и между сроками (в фигурных скобках) и направление, откуда дует ветер: С - северный, СВ - северо-восточный, В - восточный, ЮВ - юго-восточный, Ю - южный, ЮЗ - юго-западный, З - западный, СЗ - северо-западный.
Видимость - горизонтальная дальность видимости в метрах или километрах. При видимости от 1 до 10 км при отсутствии осадков обычно наблюдается дымка, при ухудшении видимости до 1 км и менее - туман. В сухую погоду видимость может ухудшаться дымом, пылью или мглою.
Явления - указаны атмосферные явления, наблюдавшиеся в срок или в последний час перед сроком; фигурными скобками обозначены явления, наблюдавшиеся между сроками (за 1-3 часа до срока); квадратными скобками обозначены град или гололедные отложения с указанием их диаметра в мм.
Облачность - указаны через наклонную черту общая и нижняя облачность в баллах и высота нижней границы облаков в метрах; квадратными скобками обозначены формы облаков: Ci - перистые, Cs - перисто-слоистые, Cc - перисто-кучевые, Ac - высококучевые, As - высокослоистые, Sc - слоисто-кучевые, Ns - слоисто-дождевые, Cu - кучевые, Cb - кучево-дождевые. Подробнее классификацию облаков см. в Атласе облаков (PDF).
T - Температура воздуха - температура, измеренная на высоте 2 м над землей.
Td - Температура точки росы - температура, при понижении до которой содержащийся в воздухе водяной пар достигнет насыщения.
f - Относительная влажность воздуха - влажноcть воздуха, измеренная на высоте 2 м над землей.
Te - Эффективная температура - температура, которую ощущает одетый по сезону человек в тени. Характеристика душности погоды. При расчете учитывается влияние влажности воздуха и скорости ветра на теплоощущения человека.
Tes - Эффективная температура на солнце - температура, которую ощущает человек, с поправкой на солнечный нагрев. Характеристика знойности погоды. Зависит от высоты солнца над горизонтом, облачности и скорости ветра. Ночью, в пасмурную погоду, а также при ветре 12 м/с и более поправка равна нулю.
P - Атмосферное давление - приведенное к уровню моря атмосферное давление.
Po - Атмосферное давление - измеренное на уровне метеостанции атмосферное давление.
Tmin - Минимальная температура - минимум температуры воздуха на высоте 2 м над землей.
Tmax - Максимальная температура - максимум температуры воздуха на высоте 2 м над землей.
R - Количество осадков - Количество выпавших осадков за период времени, мм. При наведении курсора мыши на число - период времени, за который выпало указанное количество осадков.
R24 - Количество осадков - Количество выпавших осадков за 24 часа, мм.
S - Снежный покров - Высота снежного покрова, см. При наведении курсора мыши на число - состояние снежного покрова и степень покрытия местности в баллах.